This is the latest recevied weather packets stored in our database for station/object N3WXO-1. If no packets are shown the sender has not sent any weather packets the latest 1 day(s).
| Time | Temp. | Humidity | Pressure | Rain* | Wind** | Luminosity | Snow |
|---|---|---|---|---|---|---|---|
| 1777986017 | 14.44° C | 96% | 1011.4 hPa | 0 mm | 0 m/s | 538 W/m² | - |
| 1777985730 | 13.89° C | 97% | 1011.4 hPa | 0 mm | 0 m/s | 448 W/m² | - |
| 1777985413 | 13.33° C | 96% | 1011.3 hPa | 0 mm | 0 m/s | 408 W/m² | - |
| 1777985121 | 13.33° C | 97% | 1011.2 hPa | 0 mm | 0 m/s | 383 W/m² | - |
| 1777984830 | 12.78° C | 97% | 1011.1 hPa | 0 mm | 0 m/s | 155 W/m² | - |
| 1777984525 | 12.78° C | 96% | 1011 hPa | 0 mm | 0 m/s | 47 W/m² | - |
| 1777984218 | 12.22° C | 97% | 1011 hPa | 0 mm | 0 m/s | 44 W/m² | - |
| 1777983925 | 12.22° C | 96% | 1011 hPa | 0 mm | 0 m/s | 40 W/m² | - |
| 1777983632 | 11.67° C | 96% | 1011 hPa | 0 mm | 0 m/s | 79 W/m² | - |
| 1777983318 | 11.67° C | 96% | 1011.1 hPa | 0 mm | 0 m/s | 46 W/m² | - |
| 1777983021 | 11.67° C | 96% | 1011.1 hPa | 0 mm | 0 m/s | 37 W/m² | - |
| 1777982729 | 11.11° C | 96% | 1011.2 hPa | 0 mm | 0 m/s | 40 W/m² | - |
| 1777982418 | 11.11° C | 96% | 1011.1 hPa | 0 mm | 0 m/s | 49 W/m² | - |
| 1777982128 | 11.11° C | 96% | 1011.1 hPa | 0 mm | 0 m/s | 35 W/m² | - |
| 1777981815 | 10.56° C | 96% | 1011.2 hPa | 0 mm | 0 m/s | 33 W/m² | - |
| 1777981524 | 10.56° C | 96% | 1011.3 hPa | 0 mm | 0 m/s | 32 W/m² | - |
| 1777981213 | 10.56° C | 96% | 1011.1 hPa | 0 mm | 0 m/s | 30 W/m² | - |
| 1777980920 | 10.56° C | 96% | 1011 hPa | 0 mm | 0 m/s | 30 W/m² | - |
| 1777980629 | 10.56° C | 96% | 1011.1 hPa | 0 mm | 0 m/s | 28 W/m² | - |
| 1777980335 | 10° C | 96% | 1011 hPa | 0 mm | 0 m/s | 26 W/m² | - |
| 1777980021 | 10° C | 95% | 1011 hPa | 0 mm | 0 m/s | 25 W/m² | - |
| 1777979731 | 10° C | 95% | 1010.9 hPa | 0 mm | 0 m/s | 23 W/m² | - |
| 1777979438 | 10° C | 95% | 1010.7 hPa | 0 mm | 0 m/s | 23 W/m² | - |
| 1777979120 | 10° C | 95% | 1010.7 hPa | 0 mm | 0 m/s | 21 W/m² | - |
| 1777978830 | 10° C | 95% | 1010.7 hPa | 0 mm | 0 m/s | 19 W/m² | - |
* Rain latest hour (hover to see other rain measurements)
** Current wind speed in m/s (hover to see current wind gust speed)